Eau Claire, WI

7:07 AM CDT on June 27, 2017 (GMT -0500)
Chippewa Valley Regional

Weather History for KEAU - October, 2012

Change the Weather History Date:

Thursday, October 11, 2012

  Actual Average Record
Temperature  
Mean Temperature 40 °F 49 °F  
Max Temperature 53 °F 60 °F 85 °F (1930)
Min Temperature 27 °F 38 °F 19 °F (1987)
Degree Days  
Heating Degree Days 25 16  
Month to date heating degree days 199 155  
Since 1 July heating degree days 440 388  
Cooling Degree Days 0 0  
Month to date cooling degree days 0 4  
Year to date cooling degree days 830 579  
Moisture  
Dew Point 25 °F    
Average Humidity 45    
Maximum Humidity 69    
Minimum Humidity 21    
Precipitation  
Precipitation T in 0.08 in 2.05 in (1986)
Month to date precipitation 0.11 1.00  
Year to date precipitation 20.28 26.80  
Snow  
Snow 0.00 in 0.00 in 0.60 in (1909)
Month to date snowfall T 0.0  
Since 1 July snowfall T 0.0  
Since 1 September snowfall T 0.0  
Snow Depth 0.00 in    
Sea Level Pressure  
Sea Level Pressure 30.07 in    
Wind  
Wind Speed 8 mph (NW)    
Max Wind Speed 20 mph    
Max Gust Speed 26 mph    
Visibility 10 miles    
Events Rain    
T = Trace of Precipitation, MM = Missing Value Source: NWS Daily Summary

Daily Weather History Graph

Daily Weather History Graph

Search for Another Location

Airport or City:

Trip Planner

Search our weather history database for the weather conditions in past years. The results will help you decide how hot, cold, wet, or windy it might be!

Date:

Astronomy

Oct. 11, 2012 Rise Set
Actual Time 7:17 AM CDT 6:27 PM CDT
Civil Twilight 6:47 AM CDT 6:56 PM CDT
Nautical Twilight 6:13 AM CDT 7:30 PM CDT
Astronomical Twilight 5:39 AM CDT 8:04 PM CDT
Moon 2:45 AM CDT (10/11) 4:12 PM CDT (10/11)
Length of Visible Light 12h 09m
Length of Day
11h 10m
Waning Crescent, 18% of the Moon is Illuminated
Oct 11
Waning Crescent
Oct 15
New
Oct 21
First Quarter
Oct 29
Full
Nov 6
Last Quarter

Hourly Weather History & Observations

Time (CDT) Temp. Windchill Dew Point Humidity Pressure Visibility Wind Dir Wind Speed Gust Speed Precip Events Conditions
12:56 AM 46.0 °F 40.6 °F 27.0 °F 47% 29.88 in 10.0 mi South 11.5 mph - N/A   Overcast
1:56 AM 46.9 °F - 27.0 °F 46% 29.84 in 10.0 mi South 9.2 mph - N/A   Overcast
2:56 AM 51.1 °F - 26.1 °F 38% 29.83 in 10.0 mi SW 8.1 mph - N/A   Overcast
3:56 AM 51.1 °F - 28.0 °F 41% 29.83 in 10.0 mi SW 10.4 mph - N/A   Mostly Cloudy
4:56 AM 51.1 °F - 28.9 °F 43% 29.83 in 10.0 mi North - - N/A   Overcast
5:56 AM 51.1 °F - 30.9 °F 46% 29.86 in 10.0 mi WSW 11.5 mph - 0.00 in Rain Light Rain
6:56 AM 48.0 °F - 30.9 °F 52% 29.91 in 10.0 mi NNW 8.1 mph - 0.00 in   Scattered Clouds
7:56 AM 43.0 °F 37.2 °F 30.0 °F 60% 29.98 in 10.0 mi NNW 10.4 mph - N/A   Mostly Cloudy
8:56 AM 41.0 °F 35.2 °F 34.0 °F 76% 30.02 in 10.0 mi NNW 9.2 mph - 0.00 in Rain Light Rain
9:56 AM 42.1 °F 36.6 °F 34.0 °F 73% 30.06 in 10.0 mi NNW 9.2 mph - 0.00 in   Overcast
10:56 AM 45.0 °F 40.1 °F 30.9 °F 58% 30.09 in 10.0 mi NNW 9.2 mph - N/A   Mostly Cloudy
11:56 AM 48.0 °F - 26.1 °F 42% 30.10 in 10.0 mi North 11.5 mph 19.6 mph N/A   Clear
12:56 PM 48.9 °F - 23.0 °F 36% 30.12 in 10.0 mi NNW 13.8 mph 24.2 mph N/A   Clear
1:56 PM 50.0 °F - 21.0 °F 32% 30.13 in 10.0 mi NW 11.5 mph 20.7 mph N/A   Partly Cloudy
2:56 PM 52.0 °F - 12.0 °F 20% 30.14 in 10.0 mi NW 16.1 mph 26.5 mph N/A   Clear
3:56 PM 51.1 °F - 15.1 °F 24% 30.15 in 10.0 mi NW 9.2 mph - N/A   Clear
6:56 PM 41.0 °F 37.1 °F 18.0 °F 40% 30.25 in 10.0 mi NNW 5.8 mph - N/A   Clear
8:56 PM 34.0 °F 29.8 °F 21.0 °F 59% 30.31 in 10.0 mi NW 4.6 mph - N/A   Clear
9:56 PM 32.0 °F 27.5 °F 19.0 °F 59% 30.34 in 10.0 mi NNW 4.6 mph - N/A   Clear
10:56 PM 32.0 °F 26.4 °F 19.0 °F 59% 30.36 in 10.0 mi NW 5.8 mph - N/A   Clear
11:56 PM 28.9 °F - 19.9 °F 69% 30.38 in 10.0 mi Calm Calm - N/A   Clear